Total_Precipitation_Accumulation
0.61 0.80 0.91 0.84 0.87 0.95 0.88 0.84 0.86 0.77 0.65 0.73 0.77 0.78 0.72 0.67 0.61 0.63 0.65 0.60 0.62 0.55 0.50 0.45 0.49 0.54 0.68 0.75 0.74 0.79 0.85 0.79 0.74 0.68 0.75 0.86 0.91 1.02 1.13 1.23 1.32 1.32 1.29 1.36
0.62 0.65 0.57 0.61 0.69 0.86 0.91 0.94 0.91 0.83 0.68 0.72 0.75 0.77 0.69 0.65 0.61 0.55 0.55 0.54 0.57 0.50 0.45 0.41 0.46 0.52 0.55 0.61 0.63 0.69 0.75 0.74 0.69 0.62 0.67 0.79 0.92 1.04 1.20 1.40 1.65 1.58 1.44 1.46
0.60 0.54 0.45 0.50 0.61 0.79 0.81 0.78 0.73 0.84 0.79 0.82 0.91 0.97 0.78 0.68 0.63 0.54 0.51 0.57 0.61 0.56 0.46 0.40 0.42 0.50 0.49 0.52 0.59 0.65 0.70 0.70 0.72 0.80 0.96 1.23 1.51 1.68 1.74 1.78 2.02 2.05 1.89 1.81
0.75 0.51 0.43 0.48 0.55 0.65 0.87 0.62 0.56 0.73 0.99 1.01 0.90 1.09 0.77 0.66 0.71 0.59 0.54 0.52 0.55 0.55 0.55 0.50 0.45 0.49 0.44 0.49 0.60 0.67 0.70 0.78 0.80 0.95 1.28 1.72 2.06 2.23 2.20 2.26 2.32 2.41 2.31 2.13
0.63 0.43 0.44 0.50 0.47 0.56 0.83 0.68 0.71 0.81 0.93 0.90 0.69 0.78 0.68 0.65 0.74 0.63 0.58 0.55 0.54 0.49 0.50 0.53 0.52 0.54 0.53 0.56 0.64 0.76 0.86 1.02 1.20 1.33 1.52 1.83 1.99 2.04 2.19 2.37 2.61 2.79 2.83 2.78
0.48 0.37 0.40 0.42 0.43 0.50 0.67 0.83 0.97 1.00 1.03 0.99 0.55 0.55 0.61 0.58 0.56 0.60 0.63 0.64 0.61 0.54 0.49 0.51 0.59 0.63 0.62 0.73 0.83 0.89 1.09 1.22 1.27 1.41 1.54 1.66 1.73 1.84 2.07 2.25 2.49 2.68 2.73 2.79
0.56 0.47 0.38 0.37 0.56 0.62 0.68 0.98 1.37 1.48 1.37 0.95 0.44 0.46 0.52 0.41 0.36 0.41 0.46 0.47 0.47 0.51 0.52 0.56 0.59 0.67 0.69 0.78 0.94 1.05 1.16 1.30 1.33 1.41 1.50 1.53 1.61 1.75 1.90 1.98 2.04 2.09 2.08 2.14
0.57 0.56 0.38 0.35 0.43 0.55 0.57 0.72 1.14 1.36 1.12 0.78 0.49 0.58 0.52 0.34 0.27 0.25 0.28 0.34 0.40 0.53 0.59 0.62 0.63 0.75 0.83 0.90 1.02 1.17 1.27 1.35 1.39 1.47 1.56 1.52 1.61 1.75 1.83 1.78 1.74 1.82 1.85 1.91
0.49 0.49 0.29 0.30 0.30 0.37 0.57 0.58 0.65 0.83 0.68 0.68 0.56 0.50 0.41 0.25 0.22 0.21 0.28 0.40 0.51 0.58 0.64 0.70 0.73 0.82 0.91 0.99 1.09 1.21 1.38 1.45 1.51 1.51 1.57 1.67 1.75 1.75 1.73 1.60 1.55 1.62 1.57 1.52
0.38 0.48 0.39 0.33 0.37 0.38 0.44 0.58 0.74 0.87 0.92 0.83 0.57 0.50 0.48 0.35 0.30 0.32 0.37 0.47 0.62 0.72 0.76 0.82 0.90 0.98 1.04 1.06 1.18 1.28 1.42 1.56 1.54 1.50 1.63 1.83 1.82 1.59 1.44 1.31 1.30 1.33 1.37 1.41
0.30 0.44 0.49 0.44 0.41 0.40 0.45 0.50 0.66 0.79 0.74 0.94 1.01 0.93 0.75 0.72 0.59 0.62 0.64 0.73 0.90 0.96 0.98 0.97 1.04 1.12 1.12 1.14 1.24 1.29 1.41 1.59 1.61 1.50 1.61 1.64 1.45 1.21 1.10 1.09 1.08 1.08 1.08 1.12
0.28 0.42 0.47 0.37 0.26 0.26 0.37 0.38 0.47 0.77 0.75 0.75 1.08 1.07 0.88 0.94 0.93 1.04 1.10 1.25 1.19 1.17 1.20 1.11 1.08 1.10 1.05 1.06 1.16 1.25 1.40 1.50 1.42 1.37 1.34 1.16 0.99 0.90 0.86 0.83 0.81 0.81 0.85 0.86
0.38 0.48 0.59 0.55 0.48 0.35 0.36 0.30 0.33 0.48 0.71 0.77 1.10 1.09 0.80 0.90 1.06 1.24 1.33 1.33 1.14 1.01 0.95 0.91 0.90 0.85 0.82 0.87 0.93 0.97 1.16 1.27 1.09 1.00 1.01 0.96 0.89 0.83 0.79 0.77 0.76 0.74 0.79 0.82
0.40 0.43 0.51 0.59 0.48 0.33 0.34 0.29 0.29 0.44 0.70 0.70 0.79 0.81 0.71 0.83 1.03 1.15 1.19 1.06 0.84 0.75 0.71 0.68 0.61 0.57 0.62 0.66 0.66 0.64 0.72 0.89 0.84 0.77 0.81 0.82 0.85 0.84 0.85 0.86 0.86 0.82 0.84 0.86
0.40 0.40 0.32 0.31 0.25 0.23 0.25 0.26 0.29 0.37 0.45 0.58 0.63 0.60 0.59 0.64 0.68 0.71 0.74 0.73 0.63 0.58 0.50 0.48 0.47 0.48 0.54 0.55 0.56 0.55 0.53 0.60 0.64 0.64 0.65 0.75 0.82 0.86 0.86 0.90 0.92 0.89 0.88 0.85
0.37 0.38 0.27 0.27 0.22 0.21 0.19 0.18 0.22 0.28 0.34 0.42 0.43 0.43 0.38 0.35 0.32 0.31 0.33 0.40 0.39 0.36 0.33 0.37 0.41 0.44 0.53 0.53 0.52 0.54 0.54 0.50 0.51 0.52 0.55 0.67 0.76 0.78 0.82 0.83 0.83 0.87 0.91 0.90
0.38 0.41 0.40 0.30 0.22 0.27 0.30 0.22 0.21 0.25 0.26 0.32 0.38 0.38 0.35 0.29 0.26 0.24 0.23 0.24 0.25 0.27 0.28 0.32 0.36 0.41 0.48 0.47 0.48 0.49 0.51 0.48 0.48 0.50 0.55 0.64 0.68 0.66 0.69 0.71 0.68 0.68 0.78 0.85
0.33 0.42 0.54 0.42 0.37 0.44 0.32 0.21 0.20 0.20 0.22 0.27 0.31 0.28 0.26 0.24 0.26 0.24 0.21 0.22 0.24 0.25 0.26 0.29 0.32 0.36 0.44 0.46 0.47 0.47 0.47 0.46 0.45 0.47 0.50 0.59 0.61 0.60 0.60 0.63 0.60 0.62 0.68 0.76
0.28 0.44 0.63 0.57 0.47 0.31 0.24 0.22 0.23 0.22 0.24 0.26 0.25 0.21 0.19 0.18 0.22 0.23 0.19 0.18 0.20 0.20 0.21 0.25 0.30 0.38 0.44 0.47 0.51 0.52 0.50 0.50 0.52 0.52 0.49 0.50 0.53 0.55 0.57 0.52 0.53 0.55 0.60 0.65
0.34 0.42 0.63 0.66 0.61 0.42 0.26 0.17 0.19 0.24 0.36 0.30 0.26 0.23 0.20 0.21 0.29 0.27 0.20 0.18 0.18 0.19 0.20 0.24 0.29 0.36 0.42 0.48 0.52 0.54 0.56 0.51 0.52 0.56 0.57 0.55 0.55 0.54 0.55 0.53 0.52 0.53 0.61 0.64
0.47 0.54 0.60 0.62 0.62 0.37 0.20 0.14 0.18 0.37 0.44 0.29 0.25 0.23 0.22 0.22 0.24 0.22 0.17 0.16 0.19 0.21 0.23 0.23 0.28 0.37 0.41 0.48 0.52 0.57 0.58 0.49 0.48 0.55 0.63 0.65 0.59 0.58 0.64 0.67 0.63 0.60 0.61 0.64
0.58 0.62 0.57 0.59 0.66 0.48 0.20 0.21 0.33 0.40 0.30 0.23 0.21 0.20 0.19 0.18 0.17 0.16 0.17 0.19 0.22 0.23 0.25 0.25 0.27 0.33 0.37 0.44 0.49 0.52 0.54 0.53 0.53 0.54 0.58 0.61 0.63 0.63 0.67 0.76 0.77 0.75 0.74 0.73
0.55 0.61 0.64 0.58 0.51 0.34 0.23 0.28 0.30 0.29 0.29 0.24 0.21 0.18 0.17 0.17 0.16 0.15 0.17 0.18 0.21 0.23 0.25 0.28 0.31 0.36 0.38 0.43 0.45 0.49 0.52 0.55 0.54 0.54 0.56 0.59 0.62 0.64 0.65 0.70 0.78 0.83 0.81 0.77
0.46 0.45 0.56 0.54 0.37 0.29 0.28 0.26 0.26 0.26 0.24 0.21 0.20 0.18 0.18 0.18 0.18 0.17 0.17 0.16 0.18 0.20 0.24 0.29 0.36 0.41 0.42 0.47 0.51 0.58 0.58 0.56 0.58 0.59 0.60 0.60 0.60 0.60 0.62 0.65 0.67 0.70 0.74 0.72
0.52 0.57 0.60 0.56 0.40 0.36 0.32 0.28 0.27 0.25 0.20 0.18 0.17 0.15 0.17 0.18 0.18 0.19 0.19 0.17 0.16 0.18 0.20 0.26 0.34 0.43 0.47 0.50 0.54 0.61 0.59 0.58 0.62 0.67 0.65 0.62 0.60 0.60 0.61 0.59 0.59 0.61 0.63 0.72
0.50 0.62 0.71 0.66 0.45 0.44 0.37 0.27 0.24 0.25 0.23 0.19 0.18 0.15 0.14 0.15 0.16 0.18 0.18 0.17 0.15 0.15 0.17 0.22 0.28 0.34 0.40 0.45 0.48 0.52 0.56 0.56 0.61 0.68 0.67 0.63 0.65 0.64 0.63 0.62 0.63 0.70 0.71 0.78